Temperature
21 21 20 20 20 19 19 19 19 19 18 18 18 18 18 18 17 17 17 17 17 17 17 16 16 16 16 16 16 16 16 16 16 16 16 16 16 16 16 16 16 16 15
21 21 20 20 20 19 19 19 18 18 18 18 18 18 18 17 17 17 17 17 17 17 16 16 16 16 16 16 16 16 16 16 15 15 15 15 15 15 15 15 15 15 15
21 21 20 20 19 19 19 19 18 18 18 18 18 18 17 17 17 17 17 17 16 16 16 16 16 16 16 16 16 16 16 15 15 15 15 15 15 15 15 15 15 15 15
21 21 20 20 20 19 19 18 18 18 18 18 18 17 17 17 17 17 17 16 16 16 16 16 16 16 16 16 15 15 15 15 15 15 15 15 15 14 14 14 14 15 15
21 21 20 20 20 19 19 18 18 18 18 17 17 17 17 17 17 16 16 16 16 16 16 16 16 15 15 15 15 15 15 15 14 14 14 14 14 14 14 14 14 14 14
21 21 20 20 19 19 18 18 18 18 18 17 17 17 17 17 16 16 16 16 16 16 16 16 15 15 15 15 15 15 14 14 14 14 14 14 14 14 14 14 13 13 13
20 20 20 19 19 19 18 18 18 18 17 17 17 17 17 17 16 16 16 16 16 15 15 15 15 15 15 15 15 14 14 14 14 14 14 14 14 14 13 13 13 13 13
20 20 19 19 19 19 18 18 18 18 17 17 17 17 17 17 16 16 16 16 15 15 15 15 15 15 15 15 14 14 14 14 14 14 13 13 13 13 13 13 13 13 13
20 20 19 19 19 18 18 18 18 18 17 17 17 17 16 16 16 16 15 15 15 15 15 15 15 15 15 14 14 14 14 14 14 13 13 13 13 13 13 13 13 13 13
20 19 19 19 19 18 18 18 18 17 17 17 16 16 16 16 16 15 15 15 15 15 15 15 14 14 14 14 14 14 14 14 13 13 13 13 13 13 13 13 13 12 12
19 19 19 19 18 18 18 18 17 17 17 16 16 16 16 15 15 15 15 15 15 15 15 14 14 14 14 14 14 13 13 13 13 13 13 13 13 13 13 12 12 12 12
19 19 18 18 18 18 18 17 17 17 16 16 16 16 15 15 15 15 15 15 14 14 14 14 14 14 14 14 13 13 13 13 13 13 12 12 12 12 12 12 12 12 12
18 18 18 18 18 18 17 17 17 16 16 16 16 16 16 15 15 15 15 14 14 14 14 14 14 13 13 13 13 13 13 13 12 12 12 12 12 12 12 12 12 12 12
18 18 18 18 17 17 17 17 16 16 16 16 16 16 15 15 15 15 15 14 14 14 14 14 13 13 13 13 13 13 13 12 12 12 12 12 12 12 12 11 11 11 12
18 18 17 17 17 17 17 16 16 16 16 16 16 16 15 15 15 15 14 14 14 14 14 13 13 13 13 13 12 12 12 12 12 12 12 12 11 11 11 11 11 11 11
17 17 17 17 17 16 16 16 16 16 15 15 15 15 15 15 14 14 14 14 13 13 13 13 13 13 13 12 12 12 12 12 12 11 11 11 11 11 11 11 11 11 11
17 17 17 16 16 16 16 16 15 15 15 15 15 15 15 14 14 14 13 13 13 13 13 13 13 12 12 12 12 12 12 12 11 11 11 11 11 11 11 10 10 10 10
16 16 16 16 16 16 15 15 15 15 15 15 15 15 14 14 14 14 13 13 13 13 13 13 12 12 12 12 12 12 11 11 11 11 11 11 10 10 10 10 10 10 10
16 16 16 16 16 15 15 15 15 15 15 15 15 15 14 14 14 13 13 13 13 13 13 12 12 12 12 12 12 11 11 11 11 11 10 10 10 10 10 10 10 9 9
15 15 15 15 15 15 15 15 15 15 15 14 14 14 14 14 14 13 13 13 13 13 12 12 12 12 12 11 11 11 11 11 10 10 10 10 10 10 10 10 9 9 9
15 15 15 15 15 15 14 14 14 14 14 14 14 14 14 14 13 13 13 13 13 13 12 12 12 12 11 11 11 11 11 10 10 10 10 10 10 9 9 9 9 9 9
14 14 14 14 14 14 14 14 14 14 14 14 14 14 13 13 13 13 13 12 12 12 12 12 12 11 11 11 11 10 10 10 10 9 9 9 9 9 9 9 9 9 9
14 14 14 14 14 14 14 14 14 13 13 13 13 13 13 13 13 13 12 12 12 12 12 12 11 11 11 11 10 10 10 10 9 9 9 9 9 9 9 9 9 9 8
13 13 13 13 13 13 13 13 13 13 13 13 13 13 13 12 12 12 12 12 12 12 11 11 11 11 11 10 10 10 10 9 9 9 9 9 9 9 9 8 8 8 8
13 13 13 13 13 13 13 13 12 12 12 12 12 12 12 12 12 12 12 12 11 11 11 11 11 11 10 10 10 10 9 9 9 9 9 9 9 9 8 8 8 8 8
13 13 13 13 13 13 12 12 12 12 12 12 12 12 12 12 11 11 11 11 11 11 11 11 11 10 10 10 10 9 9 9 9 9 8 8 8 8 8 8 8 8 8
Wind_Speed
9 8 7 7 6 6 6 6 6 5 5 5 5 5 4 3 3 3 2 2 1 1 1 1 1 1 1 1 0 1 1 1 2 3 2 2 2 3 3 4 6 7 8
9 9 8 8 7 7 6 6 6 5 5 6 6 5 5 4 3 3 3 2 2 2 2 1 1 1 1 1 0 0 1 1 2 2 3 2 2 3 3 3 3 4 6
10 9 8 8 8 8 7 6 6 6 5 6 6 6 5 4 4 4 4 3 3 3 3 3 2 1 2 2 1 1 1 1 1 1 2 2 2 2 2 3 3 3 4
10 10 9 9 9 8 7 6 6 6 6 6 6 6 6 5 4 4 4 4 3 3 3 3 3 3 3 3 2 2 1 0 0 1 2 2 2 2 1 2 3 3 3
10 10 9 8 7 6 6 6 6 6 7 6 6 5 5 5 5 5 4 5 4 3 3 3 3 4 4 3 2 2 2 1 1 1 2 1 2 2 2 2 2 3 3
9 9 8 8 7 7 7 7 7 6 6 6 6 6 6 5 6 8 6 5 4 4 4 3 4 3 3 4 4 4 4 3 3 2 2 2 3 3 2 2 2 2 3
9 8 8 8 8 7 8 7 7 6 6 6 6 5 5 5 6 7 8 5 4 4 4 3 3 2 2 2 3 3 3 4 5 4 4 4 4 4 3 2 3 3 4
8 8 8 8 7 7 6 7 7 5 6 6 6 5 4 4 5 6 6 5 3 4 4 4 3 3 2 2 1 2 3 3 4 4 5 6 5 4 4 4 4 3 3
7 8 8 8 7 7 7 7 6 5 5 5 5 5 5 4 4 4 5 3 2 3 3 3 3 3 3 2 1 2 3 4 4 4 5 5 6 5 3 1 1 1 3
8 8 7 8 8 7 7 6 5 5 5 5 4 4 5 4 4 5 6 3 3 2 2 3 4 4 3 2 2 2 3 4 3 4 4 4 3 3 3 4 4 2 2
7 7 6 7 7 7 5 4 5 5 4 4 4 4 4 5 5 5 6 4 4 3 3 3 4 4 4 5 4 4 6 4 2 2 2 3 3 3 3 3 4 4 3
7 7 6 6 6 6 5 5 5 5 5 5 4 3 3 4 4 5 6 6 5 4 4 4 4 5 5 5 4 5 5 3 1 1 2 2 3 3 3 3 4 5 5
7 7 6 6 5 5 6 6 5 5 5 4 4 4 4 3 3 5 5 5 5 4 4 4 4 5 5 4 5 4 3 2 1 1 2 3 3 3 2 2 2 2 3
7 6 6 6 5 4 4 5 5 5 5 5 5 5 4 3 3 2 2 3 4 4 3 3 3 3 3 4 3 2 2 2 3 3 3 3 2 1 1 1 1 2 2
6 6 6 6 6 5 4 4 5 5 7 7 6 6 5 5 6 6 5 4 4 4 2 1 0 1 1 1 1 2 1 1 2 2 2 1 1 1 2 1 1 1 1
5 5 5 5 4 4 4 2 0 2 4 7 7 7 6 7 7 7 6 5 5 5 3 2 2 3 3 3 2 2 1 2 2 2 1 1 1 1 2 1 1 0 1
6 5 5 5 5 4 4 5 3 1 1 2 5 7 7 7 7 6 6 5 4 5 3 3 3 4 3 3 3 2 2 3 2 2 1 1 1 1 1 1 1 1 1
5 5 5 5 5 5 5 5 5 4 3 1 2 4 6 7 6 6 5 4 1 2 3 3 4 4 3 3 3 2 2 1 1 1 1 1 2 1 1 1 1 2 2
4 4 3 4 4 4 5 5 4 4 4 3 1 1 3 4 4 4 5 3 3 3 4 4 4 4 3 3 3 2 2 2 2 2 2 2 2 1 2 2 2 3 2
4 6 5 4 4 4 4 5 5 4 4 4 4 3 3 3 2 2 3 3 3 3 3 4 3 3 3 3 3 2 2 2 2 2 2 2 2 2 2 3 2 2 3
4 5 5 4 4 4 4 5 5 5 5 4 4 4 6 5 5 5 5 4 4 4 4 3 3 3 3 3 3 3 3 2 2 2 2 2 2 2 2 3 3 3 3
3 4 4 4 4 4 5 5 5 5 5 5 3 3 6 4 4 4 4 4 4 4 4 3 3 3 3 3 3 3 3 3 2 2 3 3 3 3 2 2 2 2 3
4 4 4 3 4 5 5 4 4 5 4 4 4 4 4 4 4 4 4 4 3 3 3 3 3 2 2 3 3 3 4 4 4 4 3 3 3 3 3 3 3 3 3
4 4 4 4 4 4 5 5 5 5 5 4 4 4 4 4 4 4 4 3 3 3 3 3 4 4 4 3 3 4 4 4 4 4 4 4 4 3 3 3 4 4 4
4 4 4 4 4 4 4 4 4 4 4 5 4 4 4 4 4 4 4 4 4 3 3 4 4 4 5 5 4 4 4 4 4 4 3 3 3 4 4 4 4 4 4
4 4 4 4 4 5 5 5 5 5 5 4 4 4 4 4 4 4 4 4 3 3 3 3 4 5 4 4 4 3 3 3 3 3 2 2 3 3 3 4 4 4 4
Wind_Direction
186 184 179 175 172 168 173 181 181 176 169 168 166 159 158 163 161 157 174 171 183 243 265 167 265 275 313 341 48 88 128 154 222 280 282 290 277 282 287 270 257 240 239
183 183 179 178 175 177 182 184 181 178 176 175 170 165 173 178 174 173 192 194 204 228 237 218 269 286 300 292 268 262 238 190 188 269 291 298 279 273 280 280 278 256 244
179 178 176 178 182 185 187 181 182 179 175 172 170 175 182 183 182 190 194 206 219 227 220 213 229 214 275 271 253 264 260 286 195 227 276 285 296 302 311 301 294 292 267
174 175 181 186 188 187 183 181 182 178 176 178 179 182 185 185 185 191 197 205 224 232 225 218 215 208 227 240 248 247 239 306 330 281 287 295 305 304 317 303 308 302 284
172 178 186 186 178 176 179 183 182 182 185 182 179 186 188 190 197 195 204 208 217 232 239 232 222 218 225 230 235 218 206 208 232 255 266 291 288 297 278 271 286 297 285
169 180 182 177 176 181 186 186 184 187 183 177 184 190 196 208 206 202 201 214 212 215 231 242 237 235 249 255 254 235 212 206 211 221 239 249 259 255 258 264 272 306 292
174 177 177 177 178 184 187 182 186 189 186 185 190 192 203 215 211 210 208 203 211 217 221 230 246 245 251 262 281 287 270 244 216 203 222 239 239 235 233 256 250 246 252
174 177 179 178 181 183 182 188 192 188 186 191 196 195 197 217 212 210 201 200 209 218 214 213 212 235 250 232 263 297 290 275 249 221 223 237 240 233 221 224 235 256 268
173 180 182 180 181 183 188 194 192 188 194 199 193 190 196 217 206 191 179 182 206 234 232 218 208 224 251 242 231 283 303 301 297 282 259 255 256 251 225 194 221 264 283
186 186 183 180 182 189 195 196 190 184 190 187 192 192 194 209 211 195 180 184 206 244 253 238 228 227 243 230 210 229 267 278 302 330 328 318 297 283 245 206 199 205 239
182 179 181 182 185 187 187 183 176 176 173 180 189 200 202 209 213 204 187 189 204 223 236 244 247 243 254 251 233 224 238 253 272 280 297 307 312 303 279 247 216 199 210
173 176 180 182 184 177 169 174 171 168 173 185 192 208 218 218 212 209 196 203 202 206 226 236 242 241 249 252 247 248 255 252 245 269 293 292 290 289 285 272 254 231 224
175 182 180 178 179 172 170 175 174 175 183 188 194 211 228 230 230 217 202 210 217 219 230 232 246 245 247 257 261 266 257 227 222 245 257 264 261 266 281 307 312 301 286
174 179 178 176 179 178 177 178 180 187 189 192 200 211 219 222 226 224 225 227 234 239 249 265 270 262 243 251 267 265 237 221 214 230 249 266 289 310 307 307 315 329 340
172 176 178 177 175 173 175 187 195 204 199 195 201 201 202 222 230 213 208 218 223 226 205 204 257 278 272 279 275 274 263 248 236 251 253 279 304 316 304 309 327 9 334
170 176 176 173 172 169 167 163 327 204 211 204 201 199 213 218 210 204 205 210 210 191 165 184 221 231 234 236 236 255 249 235 237 241 250 240 246 273 299 324 354 336 284
175 177 175 175 178 178 179 175 183 336 5 208 215 210 207 203 197 195 198 202 203 167 171 206 219 227 231 226 220 222 234 242 235 225 233 233 240 252 265 284 297 303 293
177 180 178 182 185 187 190 189 185 187 202 252 259 216 195 185 183 181 169 139 150 174 206 219 224 223 218 218 218 221 231 245 228 227 234 239 234 243 261 269 255 251 263
173 179 182 188 187 188 187 184 184 189 192 196 212 239 190 170 164 168 158 167 192 207 218 225 224 217 212 208 206 204 206 217 217 215 233 240 237 232 250 253 250 252 249
185 184 180 185 183 185 188 186 185 187 189 189 201 205 168 144 164 187 198 208 204 211 214 218 220 213 206 199 195 194 204 224 226 225 235 244 236 223 238 245 245 253 256
187 186 186 183 190 191 192 193 189 189 191 196 209 203 178 183 193 198 200 203 204 210 211 210 213 211 205 196 191 191 195 218 228 232 237 242 243 240 244 242 243 241 247
184 188 186 185 190 196 197 196 192 191 193 198 207 202 187 183 191 200 206 211 212 210 201 191 204 212 207 201 196 194 198 213 230 239 244 244 246 247 244 240 244 250 245
189 189 194 199 197 197 194 192 190 190 192 194 191 186 189 201 202 206 211 211 206 205 198 184 186 210 205 185 181 191 201 215 224 225 234 245 245 242 243 241 240 243 244
196 197 197 201 200 198 197 196 194 189 185 188 190 192 196 200 199 202 202 201 200 204 194 182 185 191 189 184 179 186 198 217 220 221 224 234 243 242 236 241 246 242 242
195 199 202 204 202 197 193 193 192 186 184 186 189 193 198 198 198 201 200 198 189 188 189 174 174 180 185 189 185 194 217 228 227 229 225 227 239 246 245 243 244 246 247
202 204 207 208 204 200 196 195 192 186 186 190 194 197 195 197 199 198 194 191 187 186 184 171 173 175 178 178 183 195 209 222 233 234 222 217 233 254 255 250 244 241 242
Height
1522 1524 1526 1528 1530 1532 1533 1534 1534 1535 1536 1537 1537 1537 1537 1538 1538 1538 1538 1538 1538 1538 1538 1538 1538 1538 1538 1537 1537 1537 1536 1536 1535 1534 1534 1533 1532 1532 1531 1530 1529 1529 1528
1520 1522 1523 1525 1527 1529 1530 1531 1532 1533 1533 1534 1535 1535 1535 1535 1536 1536 1536 1536 1536 1536 1536 1536 1536 1536 1535 1535 1534 1534 1534 1533 1532 1531 1531 1530 1530 1529 1528 1527 1526 1525 1525
1517 1519 1521 1523 1524 1526 1527 1528 1530 1530 1531 1532 1532 1533 1533 1533 1533 1533 1534 1534 1534 1534 1534 1534 1533 1533 1533 1532 1532 1531 1531 1530 1530 1529 1528 1527 1527 1526 1525 1524 1523 1522 1522
1514 1516 1517 1519 1520 1522 1524 1525 1527 1528 1528 1529 1529 1530 1530 1531 1531 1531 1531 1531 1531 1531 1531 1531 1531 1531 1530 1530 1529 1528 1528 1527 1527 1526 1525 1524 1524 1523 1522 1521 1520 1519 1518
1510 1512 1514 1516 1518 1520 1521 1522 1524 1525 1525 1526 1526 1527 1527 1528 1528 1528 1528 1528 1529 1529 1529 1528 1528 1528 1528 1527 1527 1526 1525 1525 1524 1523 1522 1521 1520 1520 1519 1518 1517 1516 1515
1507 1509 1511 1513 1515 1517 1518 1519 1521 1521 1522 1523 1523 1524 1524 1525 1525 1526 1526 1525 1525 1525 1525 1525 1525 1525 1525 1524 1524 1523 1523 1522 1521 1520 1519 1518 1517 1517 1516 1515 1515 1513 1512
1504 1506 1508 1510 1512 1513 1515 1516 1517 1518 1519 1520 1520 1521 1521 1521 1522 1522 1522 1522 1522 1522 1522 1522 1522 1522 1521 1521 1520 1519 1519 1518 1518 1518 1516 1515 1515 1514 1513 1512 1512 1511 1510
1501 1503 1505 1507 1508 1510 1511 1512 1514 1515 1515 1516 1517 1518 1518 1518 1518 1519 1519 1519 1519 1519 1519 1518 1518 1518 1518 1518 1517 1516 1516 1515 1515 1514 1513 1513 1512 1511 1510 1510 1509 1508 1507
1498 1500 1502 1503 1505 1506 1507 1509 1510 1511 1512 1513 1514 1514 1514 1515 1515 1515 1516 1515 1515 1515 1515 1515 1515 1515 1515 1514 1514 1513 1512 1512 1512 1511 1510 1510 1509 1508 1507 1507 1506 1505 1503
1495 1497 1499 1500 1502 1503 1504 1506 1507 1508 1509 1510 1511 1511 1511 1512 1512 1512 1512 1512 1512 1512 1512 1512 1512 1512 1511 1511 1510 1510 1509 1509 1508 1507 1507 1506 1506 1505 1504 1503 1503 1502 1501
1492 1494 1496 1497 1499 1500 1502 1503 1504 1505 1506 1507 1507 1508 1508 1508 1508 1508 1509 1508 1508 1508 1509 1509 1508 1508 1508 1508 1508 1507 1507 1506 1506 1505 1504 1503 1502 1502 1501 1500 1500 1499 1498
1489 1491 1492 1494 1496 1497 1499 1499 1500 1502 1503 1503 1504 1505 1505 1505 1505 1504 1505 1505 1505 1504 1504 1505 1505 1505 1505 1505 1505 1505 1504 1504 1503 1502 1501 1500 1499 1499 1498 1497 1497 1496 1495
1486 1488 1489 1491 1493 1494 1496 1497 1498 1498 1499 1500 1501 1501 1501 1502 1502 1501 1501 1501 1501 1501 1501 1501 1502 1502 1503 1502 1502 1502 1501 1500 1500 1499 1498 1498 1497 1496 1496 1495 1494 1493 1492
1483 1485 1487 1488 1490 1492 1493 1494 1494 1495 1496 1496 1497 1498 1498 1498 1498 1498 1498 1498 1498 1498 1498 1498 1499 1499 1499 1499 1499 1498 1498 1498 1497 1497 1496 1495 1495 1494 1493 1492 1491 1490 1489
1481 1482 1484 1486 1487 1489 1490 1491 1492 1493 1493 1493 1494 1495 1495 1495 1495 1495 1495 1494 1494 1494 1494 1495 1495 1495 1495 1495 1495 1495 1495 1495 1494 1494 1493 1492 1492 1491 1490 1489 1489 1488 1487
1477 1479 1481 1482 1484 1485 1487 1488 1490 1491 1491 1491 1492 1492 1492 1493 1493 1492 1492 1492 1492 1492 1491 1491 1491 1492 1492 1491 1491 1491 1491 1491 1491 1491 1490 1489 1489 1488 1487 1487 1486 1485 1484
1474 1476 1478 1479 1480 1482 1483 1484 1486 1487 1488 1488 1489 1489 1489 1489 1489 1489 1489 1489 1489 1489 1488 1488 1488 1489 1489 1489 1488 1488 1488 1488 1488 1488 1487 1487 1486 1485 1485 1484 1483 1482 1481
1471 1473 1474 1476 1478 1479 1480 1481 1482 1483 1484 1485 1486 1486 1486 1486 1486 1486 1486 1486 1486 1485 1485 1486 1486 1486 1486 1486 1485 1485 1485 1485 1485 1484 1484 1483 1483 1482 1481 1481 1480 1479 1478
1467 1469 1470 1472 1474 1476 1477 1478 1479 1480 1481 1481 1482 1483 1483 1483 1483 1484 1483 1483 1482 1482 1483 1483 1483 1483 1483 1483 1483 1482 1482 1482 1481 1481 1480 1480 1479 1479 1478 1478 1477 1477 1476
1464 1465 1467 1468 1469 1471 1473 1474 1474 1475 1477 1477 1478 1479 1479 1480 1480 1480 1480 1480 1480 1480 1480 1480 1480 1480 1480 1480 1479 1479 1479 1478 1478 1477 1476 1476 1475 1475 1475 1474 1474 1473 1473
1460 1462 1463 1464 1465 1467 1469 1470 1471 1472 1472 1474 1475 1476 1476 1477 1476 1477 1477 1477 1477 1477 1477 1477 1477 1477 1477 1477 1476 1476 1475 1475 1474 1474 1473 1472 1472 1471 1471 1471 1470 1470 1470
1456 1458 1459 1460 1461 1463 1465 1466 1467 1468 1468 1469 1471 1472 1473 1474 1474 1474 1474 1474 1475 1475 1475 1475 1474 1475 1474 1474 1473 1472 1472 1471 1471 1470 1470 1469 1468 1468 1467 1467 1466 1466 1465
1453 1454 1455 1456 1458 1459 1461 1461 1463 1463 1464 1465 1466 1468 1469 1470 1471 1471 1471 1471 1472 1472 1472 1472 1472 1471 1471 1470 1470 1469 1469 1468 1467 1467 1466 1465 1464 1464 1463 1462 1462 1462 1461
1449 1450 1451 1452 1453 1454 1455 1456 1458 1459 1460 1461 1462 1464 1465 1466 1467 1468 1468 1468 1468 1469 1469 1469 1468 1468 1467 1467 1466 1465 1465 1464 1464 1463 1462 1461 1461 1460 1459 1459 1458 1458 1458
1446 1446 1447 1448 1449 1449 1451 1452 1453 1455 1456 1457 1458 1460 1462 1463 1464 1464 1465 1465 1465 1465 1465 1465 1465 1465 1464 1463 1462 1462 1461 1461 1460 1459 1458 1458 1457 1456 1455 1455 1455 1454 1454
1442 1442 1443 1443 1444 1445 1446 1448 1449 1451 1452 1453 1455 1456 1457 1459 1460 1460 1461 1461 1461 1462 1462 1462 1461 1461 1461 1460 1459 1458 1458 1457 1456 1455 1454 1454 1453 1452 1451 1451 1451 1450 1450